Home   Weather   19°14'N, 99°06'W   Past weeks
Flag for Mexico

Past Weather in 19°14'N, 99°06'W, Mexico — Yesterday and Last 2 Weeks

Now
70 °F

Mostly cloudy.


Feels Like: 70 °F
Forecast: N/A
Wind: 12 mph from Southeast

Location: Mexico City / Licenci

Current Time: Jul 17, 2019 at 4:36:52 pm

Latest Report: Jul 17, 2019 at 3:47 pm


Visibility: 7 mi

Pressure: 29.87 "Hg

Humidity: 50%

Dew Point: 50 °F

Location of 19°14'N, 99°06'WLocation

Past Weather in 19°14'N, 99°06'W — Graph

°F

19°14'N, 99°06'W Temperature Yesterday

Maximum temperature yesterday: 77 °F (at 3:46 pm)
Minimum temperature yesterday: 59 °F (at 7:50 am)
Average temperature yesterday: 66 °F

High & Low Weather Summary for the Past Weeks

 TemperatureHumidityPressure
High79 °F (Jul 4, 4:45 pm)100% (Jul 13, 6:52 am)30.45 "Hg (Jul 13, 6:52 am)
Low55 °F (Jul 3, 1:39 am)17% (Jul 5, 5:45 pm)29.58 "Hg (Jul 4, 6:44 pm)
Average65 °F65%30.21 "Hg
* Reported Jul 2 2:00 pm — Jul 17 2:53 pm, 19°14'N, 99°06'W. Weather by CustomWeather, © 2019

Note: Actual official high and low records may vary slightly from our data, if they occured in-between our weather recording intervals... More about our weather records

Advertising

19°14'N, 99°06'W Weather History for the Previous 24 Hours

Scroll right to see more
 ConditionsComfort  
Time TempWeatherWind HumidityBarometerVisibility
2:53 pm
Wed, Jul 17
68 °FMostly cloudy.10 mph49%30.37 "Hg7 mi
1:49 pm68 °FMore clouds than sun.9 mph49%30.38 "Hg8 mi
12:45 pm70 °FMostly cloudy.7 mph43%29.89 "Hg8 mi
11:47 am68 °FPartly sunny.8 mph53%30.40 "Hg7 mi
11:36 am66 °FPartly sunny.8 mph56%30.40 "Hg7 mi
10:54 am63 °FPartly sunny.6 mph68%30.40 "Hg7 mi
9:45 am61 °FBroken clouds.5 mph72%29.94 "Hg7 mi
8:46 am61 °FBroken clouds.6 mph72%30.40 "Hg8 mi
7:45 am59 °FBroken clouds.5 mph72%30.40 "Hg8 mi
6:48 am57 °FPassing clouds.3 mph77%29.91 "Hg8 mi
5:43 am57 °FPartly cloudy.8 mph77%30.38 "Hg10 mi
4:43 am59 °FPassing clouds.5 mph72%30.36 "Hg10 mi
3:52 am59 °FOvercast.10 mph72%29.80 "Hg10 mi
2:40 am59 °FPassing clouds.6 mph72%30.36 "Hg12 mi
1:45 am61 °FPassing clouds.10 mph68%30.38 "Hg12 mi
12:40 am61 °FPassing clouds.3 mph63%29.86 "Hg12 mi
11:40 pm
Tue, Jul 16
63 °FPassing clouds.10 mph64%30.37 "Hg12 mi
10:40 pm64 °FPassing clouds.9 mph52%30.37 "Hg12 mi
9:41 pm64 °FPartly cloudy.8 mph60%29.87 "Hg12 mi
8:47 pm63 °FPartly cloudy.12 mph68%30.34 "Hg8 mi
8:34 pm63 °FPartly cloudy.13 mph73%30.33 "Hg8 mi
7:43 pm66 °FCloudy.9 mph52%30.33 "Hg8 mi
6:51 pm72 °FLight rain. Cloudy.13 mph41%29.77 "Hg10 mi
6:36 pm73 °FLight rain. Cloudy.16 mph41%30.28 "Hg10 mi
5:49 pm75 °FBroken clouds.21 mph39%30.26 "Hg10 mi
4:46 pm77 °FScattered clouds.13 mph28%30.27 "Hg10 mi
Weather by CustomWeather, © 2019

See weather overview